This demonstration page uses our WeatherBlox Daily Observations layout. Learn more.

Left ArrowRight Arrow

Hourly Observations for March 20, 2020

Temp ( °F °C ) Dew Point ( °F °C ) Humidity (%) Winds ( mph kmh ) Pressure ( in mb ) Visibility ( mi km ) Precip ( " mm )
12:05 am 00:05 Windy with Snow Likely 25 -4 21 -6 86 86 N 33 54 30.31 1026 3 5 0.00 0.00
12:37 am 00:37 Windy with Snow Likely 25 -4 21 -6 86 86 N 32 52 30.33 1027 7 11 0.00 0.00
12:56 am 00:56 Windy with Snow Likely 25 -3.9 21 -6.1 85 85 N 30 48 30.28 1025 9 14 0.00 0.00
1:56 am 01:56 Windy with Snow Likely 23 -5 19 -7.2 85 85 N 28 44 30.35 1028 9 14 0.00 0.00
2:07 am 02:07 Mostly Cloudy with Light Snow 23 -5 18 -8 80 80 NNW 32 52 30.44 1031 9 14 0.00 0.00
2:56 am 02:56 Cloudy 22 -5.6 14 -10 71 71 N 26 43 30.40 1029 10 16 0.00 0.00
3:56 am 03:56 Clear 19 -7.2 10 -12.2 68 68 N 29 46 30.43 1031 10 16 0.00 0.00
4:56 am 04:56 Windy with Snow Likely 17 -8.3 10 -12.2 74 74 NNW 28 44 30.49 1033 9 14 0.00 0.00
5:56 am 05:56 Clear 15 -9.4 9 -12.8 77 77 NNW 21 33 30.53 1034 10 16 0.00 0.00
6:56 am 06:56 Clear 14 -10 6 -14.4 71 71 NNW 24 39 30.57 1035 10 16 0.00 0.00
7:56 am 07:56 Sunny 13 -10.6 5 -15 70 70 N 25 41 30.57 1035 10 16 0.00 0.00
8:56 am 08:56 Sunny 15 -9.4 6 -14.4 67 67 N 23 37 30.61 1037 10 16 0.00 0.00
9:56 am 09:56 Sunny 17 -8.3 7 -13.9 64 64 N 23 37 30.66 1038 10 16 0.00 0.00
10:56 am 10:56 Sunny 20 -6.7 9 -12.8 62 62 N 17 28 30.69 1039 10 16 0.00 0.00
11:56 am 11:56 Sunny 23 -5 10 -12.2 57 57 NNW 13 20 30.71 1040 10 16 0.00 0.00
12:56 pm 12:56 Sunny 26 -3.3 12 -11.1 55 55 N 13 20 30.69 1039 10 16 0.00 0.00
1:56 pm 13:56 Sunny 27 -2.8 12 -11.1 53 53 NNW 10 17 30.68 1039 10 16 0.00 0.00
2:56 pm 14:56 Sunny 30 -1.1 14 -10 51 51 NNW 8 13 30.65 1038 10 16 0.00 0.00
3:56 pm 15:56 Sunny 30 -1.1 14 -10 51 51 NNW 13 20 30.63 1037 10 16 0.00 0.00
4:56 pm 16:56 Sunny 31 -0.6 16 -8.9 54 54 NNE 9 15 30.61 1037 10 16 0.00 0.00
5:56 pm 17:56 Sunny 30 -1.1 15 -9.4 54 54 N 8 13 30.60 1036 10 16 0.00 0.00
6:56 pm 18:56 Sunny 28 -2.2 14 -10 56 56 NNE 12 19 30.59 1036 10 16 0.00 0.00
7:56 pm 19:56 Clear 24 -4.4 14 -10 65 65 ENE 9 15 30.61 1037 10 16 0.00 0.00
8:56 pm 20:56 Partly Cloudy 22 -5.6 15 -9.4 75 75 ENE 8 13 30.62 1037 10 16 0.00 0.00
9:56 pm 21:56 Cloudy 23 -5 15 -9.4 72 72 E 10 17 30.62 1037 10 16 0.00 0.00
10:56 pm 22:56 Mostly Cloudy 22 -5.6 14 -10 71 71 E 8 13 30.62 1037 10 16 0.00 0.00
11:56 pm 23:56 Partly Cloudy 19 -7.2 13 -10.6 77 77 ESE 7 11 30.61 1037 10 16 0.00 0.00

Powered by AerisWeather